{"data":{"norad_id":63778,"epoch":"2026-09-20T02:21:26.566560Z","epoch_age_seconds":184561,"freshness":"STALE","line1":"1 63778U 25091D   26263.09822415  .00017663  00000+0  64947-3 0  9993","line2":"2 63778  43.0043  34.6793 0002164 263.7414  96.3191 15.27598663 78724","mean_motion":15.27598663,"eccentricity":0.0002164,"inclination_deg":43.0043,"raan_deg":34.6793,"arg_perigee_deg":263.7414,"mean_anomaly_deg":96.3191,"bstar":0.00064947,"rev_number":7872,"period_min":94.265597036595,"perigee_km":481.50846429456,"apogee_km":484.47796145069,"semimajor_km":6861.1302128726,"source":"CELESTRAK","updated_at":"2026-09-21T09:00:35.098326Z"}}